Quiberon — FNQY — position and weather

sailwx.info

Track history (hours):
 
Tides and Currents Weather Stations Pressure Air Temp Water Temp Dewpoint Dewpoint Depression Visibility Wind Speed Wind Dir Waves Ship Positions

Quiberon

Operator: Brittany Ferries

Last reported at 2017-May-23 09:30 UTC. Time now 2017-May-25 10:36 UTC.
Position N 45°14' W 000°44'.

Length 25 m; draft 4.8 m.

Type: Tug. MMSI: 228296800.

Date/timePositionNaut miles runAvg speedWind from/ knotsBaromVisibWave heightAir tempDewpointWater temp
2017-May-23 09:30N 45°14' W 000°44'9 1.7
2017-May-23 04:25N 45°05' W 000°40'410.1
2017-May-23 03:59N 45°09' W 000°43'510.0
2017-May-23 03:26N 45°05' W 000°39'  
2017-May-17 07:27N 45°00' W 000°34'0 0.0
2017-May-17 06:59N 45°00' W 000°34'0 0.0
2017-May-17 06:30N 45°00' W 000°34'0 0.0
2017-May-17 06:00N 45°00' W 000°34'0 0.0
2017-May-17 05:31N 45°00' W 000°34'0 0.0
2017-May-17 05:00N 45°00' W 000°34'0 0.0
2017-May-17 04:27N 45°00' W 000°34'3 1.4
2017-May-17 02:24N 45°02' W 000°36'3 7.6
2017-May-17 02:00N 45°04' W 000°39'5 6.8
2017-May-17 01:16N 45°09' W 000°43'2 6.8
2017-May-17 01:00N 45°11' W 000°43'3 1.8
2017-May-16 23:16N 45°14' W 000°45'0 0.0
2017-May-16 21:43N 45°14' W 000°45'0 0.0
2017-May-16 21:30N 45°14' W 000°45'0 0.0
2017-May-16 21:00N 45°14' W 000°45'0 0.0
2017-May-16 20:30N 45°14' W 000°45'0 0.1
2017-May-16 20:00N 45°14' W 000°45'0 0.2
2017-May-16 19:30N 45°14' W 000°45'1 3.0
2017-May-16 19:00N 45°15' W 000°45'2 3.7
2017-May-16 18:30N 45°13' W 000°44'0 0.2
2017-May-16 18:00N 45°13' W 000°44'1 1.1
2017-May-16 17:30N 45°13' W 000°44'18 1.8
2017-May-16 07:15N 44°56' W 000°33'0 0.0
2017-May-16 07:00N 44°56' W 000°33'0 0.2
2017-May-16 06:29N 44°56' W 000°33'2 5.3
2017-May-16 06:00N 44°54' W 000°32'1 1.3
2017-May-16 05:30N 44°53' W 000°32'0 0.0
2017-May-16 04:59N 44°53' W 000°32'0 0.0
2017-May-16 04:27N 44°53' W 000°32'0 0.0
2017-May-16 01:01N 44°53' W 000°32'0 0.0
2017-May-16 00:51N 44°53' W 000°32'0 0.0
2017-May-16 00:24N 44°53' W 000°32'0 0.0
2017-May-15 23:58N 44°53' W 000°32'0 0.0
2017-May-14 06:53N 44°53' W 000°32'0 0.0
2017-May-14 05:27N 44°53' W 000°32'0 0.0
2017-May-14 05:00N 44°53' W 000°32'0 0.0
2017-May-14 04:10N 44°53' W 000°32'0 0.0
2017-May-14 04:00N 44°53' W 000°32'0 0.0
2017-May-14 03:29N 44°53' W 000°32'0 0.0
2017-May-14 02:47N 44°53' W 000°32'0 0.0
2017-May-14 02:26N 44°53' W 000°32'0 0.0
2017-May-13 23:04N 44°53' W 000°32'0 0.0
2017-May-13 22:34N 44°53' W 000°32'  
Track history (hours):
 
Tides and Currents Weather Stations Pressure Air Temp Water Temp Dewpoint Dewpoint Depression Visibility Wind Speed Wind Dir Waves Ship Positions

Quiberon

Operator: Brittany Ferries

Last reported at 2017-May-23 09:30 UTC. Time now 2017-May-25 10:36 UTC.
Position N 45°14' W 000°44'.

Length 25 m; draft 4.8 m.

Type: Tug. MMSI: 228296800.

Date/timePositionNaut miles runAvg speedWind from/ knotsBaromVisibWave heightAir tempDewpointWater temp
2017-May-23 09:30N 45°14' W 000°44'9 1.7
2017-May-23 04:25N 45°05' W 000°40'410.1
2017-May-23 03:59N 45°09' W 000°43'510.0
2017-May-23 03:26N 45°05' W 000°39'  
2017-May-17 07:27N 45°00' W 000°34'0 0.0
2017-May-17 06:59N 45°00' W 000°34'0 0.0
2017-May-17 06:30N 45°00' W 000°34'0 0.0
2017-May-17 06:00N 45°00' W 000°34'0 0.0
2017-May-17 05:31N 45°00' W 000°34'0 0.0
2017-May-17 05:00N 45°00' W 000°34'0 0.0
2017-May-17 04:27N 45°00' W 000°34'3 1.4
2017-May-17 02:24N 45°02' W 000°36'3 7.6
2017-May-17 02:00N 45°04' W 000°39'5 6.8
2017-May-17 01:16N 45°09' W 000°43'2 6.8
2017-May-17 01:00N 45°11' W 000°43'3 1.8
2017-May-16 23:16N 45°14' W 000°45'0 0.0
2017-May-16 21:43N 45°14' W 000°45'0 0.0
2017-May-16 21:30N 45°14' W 000°45'0 0.0
2017-May-16 21:00N 45°14' W 000°45'0 0.0
2017-May-16 20:30N 45°14' W 000°45'0 0.1
2017-May-16 20:00N 45°14' W 000°45'0 0.2
2017-May-16 19:30N 45°14' W 000°45'1 3.0
2017-May-16 19:00N 45°15' W 000°45'2 3.7
2017-May-16 18:30N 45°13' W 000°44'0 0.2
2017-May-16 18:00N 45°13' W 000°44'1 1.1
2017-May-16 17:30N 45°13' W 000°44'18 1.8
2017-May-16 07:15N 44°56' W 000°33'0 0.0
2017-May-16 07:00N 44°56' W 000°33'0 0.2
2017-May-16 06:29N 44°56' W 000°33'2 5.3
2017-May-16 06:00N 44°54' W 000°32'1 1.3
2017-May-16 05:30N 44°53' W 000°32'0 0.0
2017-May-16 04:59N 44°53' W 000°32'0 0.0
2017-May-16 04:27N 44°53' W 000°32'0 0.0
2017-May-16 01:01N 44°53' W 000°32'0 0.0
2017-May-16 00:51N 44°53' W 000°32'0 0.0
2017-May-16 00:24N 44°53' W 000°32'0 0.0
2017-May-15 23:58N 44°53' W 000°32'0 0.0
2017-May-14 06:53N 44°53' W 000°32'0 0.0
2017-May-14 05:27N 44°53' W 000°32'0 0.0
2017-May-14 05:00N 44°53' W 000°32'0 0.0
2017-May-14 04:10N 44°53' W 000°32'0 0.0
2017-May-14 04:00N 44°53' W 000°32'0 0.0
2017-May-14 03:29N 44°53' W 000°32'0 0.0
2017-May-14 02:47N 44°53' W 000°32'0 0.0
2017-May-14 02:26N 44°53' W 000°32'0 0.0
2017-May-13 23:04N 44°53' W 000°32'0 0.0
2017-May-13 22:34N 44°53' W 000°32'  

Dump ship's entire track history